| time (UTC) | temp C | wind direction | speed KPH | gust KPH | rain 1hr cm | rain 24hr cm | rain mn cm | humidity % | barometer mb |
| 20260507070204 | 10 | 140 | 0.0 | 3.2 | 0.00 | 0.56 | 0.03 | 87 | 1006.1 |
| 20260507065906 | 10 | 107 | 0.0 | 3.2 | 0.00 | 0.56 | 0.03 | 87 | 1006.1 |
| 20260507065138 | 10 | 101 | 0.0 | 3.2 | 0.00 | 0.56 | 0.03 | 87 | 1006.0 |
| 20260507065133 | 10 | 101 | 1.6 | 4.8 | 0.00 | 0.56 | 0.03 | 87 | 1005.7 |
| 20260507064358 | 10 | 101 | 0.0 | 4.8 | 0.00 | 0.56 | 0.03 | 87 | 1005.9 |
| 20260507063602 | 10 | 193 | 0.0 | 1.6 | 0.00 | 0.56 | 0.03 | 87 | 1006.1 |
| 20260507063307 | 10 | 193 | 0.0 | 1.6 | 0.00 | 0.56 | 0.03 | 87 | 1005.9 |
| 20260507062511 | 10 | 193 | 0.0 | 0.0 | 0.00 | 0.56 | 0.03 | 87 | 1005.9 |
| 20260507061941 | 10 | 193 | 0.0 | 3.2 | 0.00 | 0.56 | 0.03 | 87 | 1005.8 |
| 20260507061441 | 10 | 193 | 0.0 | 3.2 | 0.00 | 0.56 | 0.03 | 87 | 1005.8 |
| 20260507060911 | 10 | 198 | 0.0 | 4.8 | 0.00 | 0.56 | 0.03 | 87 | 1005.9 |
| 20260507060409 | 10 | 198 | 0.0 | 4.8 | 0.00 | 0.56 | 0.03 | 87 | 1005.9 |
| 20260507055842 | 10 | 76 | 0.0 | 4.8 | 0.00 | 0.56 | 0.03 | 87 | 1005.9 |
| 20260507055548 | 10 | 129 | 1.6 | 4.8 | 0.00 | 0.56 | 0.03 | 87 | 1006.0 |
| 20260507054817 | 10 | 42 | 1.6 | 3.2 | 0.03 | 0.56 | 0.03 | 88 | 1006.3 |
| 20260507054813 | 10 | 116 | 0.0 | 4.8 | 0.00 | 0.56 | 0.03 | 87 | 1006.2 |
| 20260507053801 | 11 | 57 | 1.6 | 4.8 | 0.03 | 0.56 | 0.03 | 88 | 1006.4 |
| 20260507053257 | 11 | 57 | 1.6 | 4.8 | 0.03 | 0.56 | 0.03 | 88 | 1006.3 |
| 20260507053030 | 11 | 267 | 1.6 | 3.2 | 0.03 | 0.56 | 0.03 | 88 | 1006.5 |
| 20260507052232 | 11 | 119 | 0.0 | 3.2 | 0.03 | 0.56 | 0.03 | 88 | 1006.3 |
| 20260507051959 | 11 | 119 | 1.6 | 3.2 | 0.03 | 0.56 | 0.03 | 88 | 1006.3 |
| 20260507051228 | 11 | 119 | 1.6 | 6.4 | 0.03 | 0.56 | 0.03 | 88 | 1006.5 |
| 20260507050659 | 11 | 120 | 0.0 | 6.4 | 0.03 | 0.56 | 0.03 | 88 | 1006.6 |
| 20260507050157 | 11 | 143 | 0.0 | 4.8 | 0.03 | 0.56 | 0.03 | 88 | 1006.3 |
| 20260507045630 | 11 | 98 | 1.6 | 4.8 | 0.05 | 0.56 | 0.03 | 88 | 1006.3 |
| 20260507045104 | 11 | 140 | 0.0 | 8.0 | 0.08 | 0.56 | 0.03 | 88 | 1006.3 |
| 20260507044813 | 11 | 150 | 1.6 | 8.0 | 0.05 | 0.53 | 0.03 | 88 | 1006.1 |
| 20260507044029 | 11 | 150 | 1.6 | 8.0 | 0.05 | 0.53 | 0.00 | 88 | 1006.2 |
| 20260507043528 | 11 | 170 | 1.6 | 8.0 | 0.05 | 0.53 | 0.00 | 88 | 1006.2 |
| 20260507043000 | 12 | 173 | 1.6 | 9.7 | 0.05 | 0.53 | 0.00 | 88 | 1006.1 |
| 20260507042457 | 12 | 178 | 1.6 | 9.7 | 0.05 | 0.53 | 0.00 | 87 | 1006.1 |
| 20260507041932 | 12 | 105 | 3.2 | 16.1 | 0.05 | 0.53 | 0.00 | 87 | 1006.2 |
| 20260507041636 | 12 | 201 | 1.6 | 16.1 | 0.05 | 0.53 | 0.00 | 87 | 1006.3 |
| 20260507040840 | 12 | 261 | 1.6 | 6.4 | 0.05 | 0.53 | 0.00 | 87 | 1006.3 |
| 20260507040548 | 13 | 198 | 1.6 | 6.4 | 0.05 | 0.53 | 0.00 | 88 | 1006.3 |
| 20260507035814 | 13 | 302 | 1.6 | 4.8 | 0.05 | 0.53 | 0.53 | 89 | 1006.3 |
| 20260507035545 | 13 | 167 | 1.6 | 4.8 | 0.00 | 0.48 | 0.51 | 89 | 1006.0 |
| 20260507035047 | 13 | 27 | 1.6 | 4.8 | 0.00 | 0.48 | 0.48 | 88 | 1006.0 |
| 20260507034523 | 13 | 159 | 1.6 | 3.2 | 0.00 | 0.48 | 0.48 | 88 | 1005.7 |
| 20260507033725 | 13 | 159 | 1.6 | 4.8 | 0.00 | 0.48 | 0.48 | 88 | 1005.6 |
| 20260507033203 | 13 | 306 | 0.0 | 3.2 | 0.00 | 0.48 | 0.48 | 88 | 1005.5 |
| 20260507032909 | 13 | 315 | 0.0 | 3.2 | 0.00 | 0.48 | 0.48 | 88 | 1005.4 |
| 20260507032118 | 13 | 315 | 1.6 | 4.8 | 0.00 | 0.48 | 0.48 | 88 | 1005.3 |
| 20260507031616 | 13 | 315 | 3.2 | 9.7 | 0.00 | 0.48 | 0.48 | 88 | 1005.3 |
| 20260507031345 | 14 | 20 | 4.8 | 12.9 | 0.00 | 0.48 | 0.48 | 88 | 1005.1 |
| 20260507030613 | 14 | 46 | 1.6 | 11.3 | 0.00 | 0.48 | 0.48 | 89 | 1005.2 |
| 20260507030049 | 15 | 274 | 1.6 | 11.3 | 0.00 | 0.48 | 0.48 | 90 | 1005.1 |
| 20260507025756 | 15 | 180 | 1.6 | 4.8 | 0.00 | 0.48 | 0.48 | 90 | 1005.0 |
| 20260507025021 | 15 | 18 | 1.6 | 4.8 | 0.00 | 0.48 | 0.48 | 90 | 1005.2 |
| 20260507025017 | 15 | 88 | 1.6 | 4.8 | 0.00 | 0.48 | 0.48 | 90 | 1005.0 |
| 20260507024012 | 15 | 143 | 1.6 | 8.0 | 0.00 | 0.48 | 0.48 | 90 | 1004.9 |
| 20260507023511 | 15 | 54 | 1.6 | 8.0 | 0.00 | 0.48 | 0.48 | 90 | 1005.1 |
| 20260507023006 | 15 | 120 | 1.6 | 6.4 | 0.00 | 0.48 | 0.48 | 90 | 1005.0 |
| 20260507022504 | 15 | 121 | 1.6 | 6.4 | 0.00 | 0.48 | 0.48 | 90 | 1005.0 |
| 20260507021938 | 15 | 87 | 1.6 | 4.8 | 0.00 | 0.48 | 0.48 | 90 | 1004.9 |
| 20260507021413 | 15 | 87 | 1.6 | 4.8 | 0.00 | 0.48 | 0.48 | 90 | 1004.7 |
| 20260507020847 | 15 | 145 | 1.6 | 6.4 | 0.00 | 0.48 | 0.48 | 90 | 1004.6 |
| 20260507020318 | 15 | 92 | 3.2 | 4.8 | 0.00 | 0.48 | 0.48 | 90 | 1004.7 |
| 20260507015817 | 15 | 58 | 1.6 | 6.4 | 0.00 | 0.48 | 0.48 | 90 | 1004.8 |
| 20260507015518 | 15 | 42 | 1.6 | 11.3 | 0.00 | 0.48 | 0.48 | 90 | 1004.8 |
| 20260507014747 | 15 | 75 | 1.6 | 11.3 | 0.00 | 0.48 | 0.48 | 90 | 1004.8 |
| 20260507014226 | 15 | 112 | 1.6 | 6.4 | 0.00 | 0.48 | 0.48 | 90 | 1004.9 |
| 20260507013648 | 15 | 146 | 1.6 | 4.8 | 0.00 | 0.48 | 0.48 | 90 | 1004.9 |
| 20260507013145 | 15 | 114 | 1.6 | 4.8 | 0.00 | 0.48 | 0.48 | 90 | 1004.8 |
| 20260507012621 | 15 | 113 | 1.6 | 4.8 | 0.00 | 0.48 | 0.48 | 90 | 1004.8 |
| 20260507012052 | 15 | 112 | 1.6 | 3.2 | 0.00 | 0.48 | 0.48 | 90 | 1004.9 |
| 20260507011550 | 15 | 98 | 3.2 | 4.8 | 0.00 | 0.48 | 0.48 | 90 | 1004.9 |
| 20260507011253 | 15 | 100 | 3.2 | 4.8 | 0.00 | 0.48 | 0.48 | 90 | 1005.0 |
| 20260507010521 | 15 | 330 | 1.6 | 4.8 | 0.00 | 0.48 | 0.48 | 90 | 1005.0 |
| 20260507010226 | 15 | 136 | 1.6 | 4.8 | 0.00 | 0.48 | 0.48 | 90 | 1005.0 |
| 20260507005450 | 15 | 136 | 1.6 | 6.4 | 0.00 | 0.48 | 0.48 | 90 | 1004.9 |
| 20260507004949 | 15 | 136 | 3.2 | 6.4 | 0.00 | 0.48 | 0.48 | 90 | 1004.9 |
| 20260507004420 | 15 | 130 | 3.2 | 8.0 | 0.00 | 0.48 | 0.48 | 90 | 1004.9 |
| 20260507003919 | 15 | 164 | 3.2 | 8.0 | 0.00 | 0.48 | 0.48 | 90 | 1004.8 |
| 20260507003350 | 15 | 161 | 1.6 | 6.4 | 0.00 | 0.48 | 0.48 | 90 | 1004.7 |
| 20260507003120 | 15 | 207 | 1.6 | 6.4 | 0.00 | 0.48 | 0.48 | 90 | 1004.7 |
| 20260507002320 | 15 | 207 | 3.2 | 6.4 | 0.03 | 0.48 | 0.48 | 90 | 1004.7 |
| 20260507001818 | 15 | 134 | 3.2 | 6.4 | 0.03 | 0.48 | 0.48 | 90 | 1004.7 |
| 20260507001314 | 15 | 107 | 3.2 | 6.4 | 0.03 | 0.48 | 0.48 | 90 | 1004.7 |
| 20260507000813 | 15 | 62 | 3.2 | 6.4 | 0.08 | 0.48 | 0.48 | 90 | 1004.8 |
| 20260507000244 | 15 | 148 | 1.6 | 4.8 | 0.13 | 0.48 | 0.48 | 90 | 1004.8 |
| 20260506235743 | 15 | 153 | 1.6 | 4.8 | 0.15 | 0.48 | 0.48 | 90 | 1004.7 |
| 20260506235214 | 15 | 152 | 3.2 | 6.4 | 0.15 | 0.48 | 0.48 | 90 | 1004.5 |
| 20260506234713 | 15 | 143 | 1.6 | 6.4 | 0.15 | 0.48 | 0.48 | 90 | 1004.6 |
| 20260506234208 | 15 | 146 | 1.6 | 8.0 | 0.18 | 0.48 | 0.48 | 90 | 1004.6 |
| 20260506233706 | 15 | 150 | 3.2 | 8.0 | 0.20 | 0.48 | 0.48 | 90 | 1004.6 |
| 20260506233159 | 15 | 142 | 1.6 | 8.0 | 0.23 | 0.48 | 0.48 | 89 | 1004.6 |
| 20260506233154 | 15 | 148 | 3.2 | 8.0 | 0.23 | 0.48 | 0.48 | 90 | 1004.6 |
| 20260506232140 | 15 | 173 | 3.2 | 8.0 | 0.20 | 0.46 | 0.46 | 89 | 1004.6 |
| 20260506231637 | 15 | 130 | 3.2 | 4.8 | 0.25 | 0.46 | 0.46 | 89 | 1004.6 |
| 20260506231409 | 15 | 101 | 3.2 | 9.7 | 0.23 | 0.43 | 0.46 | 89 | 1004.7 |
| 20260506230636 | 15 | 99 | 3.2 | 9.7 | 0.20 | 0.38 | 0.41 | 89 | 1004.7 |
| 20260506230108 | 15 | 162 | 1.6 | 6.4 | 0.18 | 0.36 | 0.36 | 89 | 1004.7 |
| 20260506225606 | 15 | 162 | 3.2 | 6.4 | 0.15 | 0.33 | 0.33 | 89 | 1004.7 |
| 20260506225041 | 15 | 163 | 1.6 | 6.4 | 0.15 | 0.33 | 0.33 | 89 | 1004.8 |
| 20260506224743 | 15 | 161 | 1.6 | 6.4 | 0.13 | 0.30 | 0.30 | 89 | 1004.9 |
| 20260506224011 | 15 | 171 | 1.6 | 6.4 | 0.10 | 0.28 | 0.28 | 89 | 1004.8 |
| 20260506223443 | 15 | 159 | 1.6 | 6.4 | 0.10 | 0.28 | 0.28 | 88 | 1004.8 |
| 20260506222943 | 15 | 160 | 3.2 | 9.7 | 0.08 | 0.25 | 0.25 | 88 | 1004.8 |
| 20260506222421 | 15 | 168 | 3.2 | 9.7 | 0.08 | 0.25 | 0.25 | 88 | 1004.9 |
| 20260506222153 | 15 | 128 | 3.2 | 11.3 | 0.05 | 0.23 | 0.23 | 88 | 1005.0 |
| 20260506221418 | 15 | 148 | 3.2 | 11.3 | 0.03 | 0.20 | 0.20 | 88 | 1005.0 |
| 20260506220915 | 15 | 174 | 3.2 | 8.0 | 0.03 | 0.20 | 0.20 | 88 | 1005.0 |
| 20260506220416 | 15 | 190 | 3.2 | 8.0 | 0.00 | 0.18 | 0.18 | 88 | 1005.1 |
| 20260506215914 | 15 | 162 | 1.6 | 8.0 | 0.03 | 0.18 | 0.18 | 88 | 1005.1 |
| 20260506215354 | 15 | 138 | 3.2 | 8.0 | 0.03 | 0.18 | 0.18 | 88 | 1005.3 |
| 20260506214857 | 15 | 141 | 3.2 | 8.0 | 0.03 | 0.18 | 0.18 | 88 | 1005.2 |
| 20260506214344 | 15 | 176 | 3.2 | 8.0 | 0.03 | 0.18 | 0.18 | 88 | 1005.1 |
| 20260506213847 | 15 | 175 | 3.2 | 8.0 | 0.05 | 0.18 | 0.18 | 88 | 1005.0 |
| 20260506213321 | 15 | 169 | 1.6 | 6.4 | 0.05 | 0.18 | 0.18 | 88 | 1005.1 |
| 20260506212821 | 15 | 135 | 1.6 | 4.8 | 0.05 | 0.18 | 0.18 | 88 | 1005.2 |
| 20260506212306 | 15 | 132 | 3.2 | 8.0 | 0.08 | 0.18 | 0.18 | 88 | 1005.3 |
| 20260506211805 | 15 | 176 | 3.2 | 8.0 | 0.08 | 0.18 | 0.18 | 87 | 1005.4 |
| 20260506211242 | 15 | 184 | 3.2 | 8.0 | 0.08 | 0.18 | 0.18 | 87 | 1005.5 |
| 20260506210725 | 15 | 188 | 3.2 | 8.0 | 0.10 | 0.18 | 0.18 | 87 | 1005.5 |
| 20260506210455 | 15 | 162 | 3.2 | 8.0 | 0.10 | 0.18 | 0.18 | 87 | 1005.5 |
| 20260506205958 | 15 | 153 | 3.2 | 6.4 | 0.08 | 0.15 | 0.15 | 87 | 1005.8 |
| 20260506205209 | 15 | 182 | 3.2 | 9.7 | 0.08 | 0.15 | 0.15 | 86 | 1005.7 |
| 20260506204710 | 15 | 169 | 3.2 | 8.0 | 0.08 | 0.15 | 0.15 | 87 | 1005.8 |
| 20260506204149 | 16 | 139 | 3.2 | 6.4 | 0.05 | 0.13 | 0.15 | 86 | 1005.8 |
| 20260506203649 | 16 | 155 | 3.2 | 11.3 | 0.05 | 0.13 | 0.13 | 86 | 1005.8 |
| 20260506203149 | 16 | 297 | 1.6 | 11.3 | 0.05 | 0.13 | 0.13 | 86 | 1005.8 |
| 20260506202646 | 16 | 143 | 3.2 | 4.8 | 0.08 | 0.13 | 0.13 | 86 | 1005.8 |
| 20260506202417 | 16 | 134 | 3.2 | 6.4 | 0.05 | 0.10 | 0.10 | 85 | 1005.8 |
| 20260506201849 | 16 | 189 | 3.2 | 6.4 | 0.05 | 0.10 | 0.10 | 85 | 1005.6 |
| 20260506201051 | 16 | 205 | 3.2 | 6.4 | 0.03 | 0.08 | 0.08 | 84 | 1005.7 |
| 20260506200525 | 16 | 138 | 3.2 | 6.4 | 0.05 | 0.08 | 0.08 | 84 | 1005.8 |
| 20260506195959 | 16 | 138 | 1.6 | 6.4 | 0.05 | 0.08 | 0.08 | 85 | 1005.7 |
| 20260506195432 | 16 | 172 | 1.6 | 4.8 | 0.05 | 0.08 | 0.08 | 84 | 1005.7 |
| 20260506194928 | 16 | 173 | 3.2 | 9.7 | 0.08 | 0.08 | 0.08 | 84 | 1005.8 |
| 20260506194425 | 16 | 338 | 3.2 | 9.7 | 0.08 | 0.08 | 0.08 | 83 | 1005.7 |
| 20260506193924 | 17 | 136 | 1.6 | 3.2 | 0.08 | 0.08 | 0.08 | 84 | 1005.7 |
| 20260506193358 | 17 | 136 | 3.2 | 6.4 | 0.08 | 0.08 | 0.08 | 83 | 1005.8 |
| 20260506192829 | 17 | 128 | 3.2 | 9.7 | 0.05 | 0.05 | 0.05 | 82 | 1005.8 |
| 20260506192329 | 17 | 130 | 3.2 | 9.7 | 0.05 | 0.05 | 0.05 | 82 | 1005.8 |
| 20260506191759 | 17 | 157 | 3.2 | 8.0 | 0.05 | 0.05 | 0.05 | 81 | 1005.7 |
| 20260506191258 | 17 | 158 | 3.2 | 8.0 | 0.05 | 0.05 | 0.05 | 79 | 1005.7 |
| 20260506190729 | 18 | 114 | 3.2 | 6.4 | 0.03 | 0.03 | 0.03 | 79 | 1005.8 |
| 20260506190228 | 18 | 111 | 3.2 | 8.0 | 0.03 | 0.03 | 0.03 | 78 | 1005.8 |
| 20260506185932 | 18 | 308 | 1.6 | 8.0 | 0.03 | 0.03 | 0.03 | 77 | 1006.0 |
| 20260506185133 | 18 | 131 | 1.6 | 4.8 | 0.03 | 0.03 | 0.03 | 77 | 1005.9 |
| 20260506184631 | 19 | 113 | 3.2 | 6.4 | 0.00 | 0.00 | 0.00 | 76 | 1005.9 |
| 20260506184123 | 19 | 158 | 3.2 | 8.0 | 0.00 | 0.00 | 0.00 | 75 | 1006.1 |
| 20260506183852 | 20 | 41 | 1.6 | 8.0 | 0.00 | 0.00 | 0.00 | 73 | 1005.9 |
| 20260506183119 | 20 | 67 | 3.2 | 12.9 | 0.00 | 0.00 | 0.00 | 73 | 1006.1 |
| 20260506182822 | 20 | 117 | 4.8 | 12.9 | 0.00 | 0.00 | 0.00 | 70 | 1006.0 |
| 20260506182048 | 20 | 150 | 3.2 | 12.9 | 0.00 | 0.00 | 0.00 | 70 | 1006.2 |
| 20260506181522 | 20 | 172 | 3.2 | 9.7 | 0.00 | 0.00 | 0.00 | 70 | 1006.0 |
| 20260506181500 | 21 | 148 | 4.8 | 12.9 | 0.00 | 0.00 | 0.00 | 68 | 1006.0 |
| 20260506180452 | 21 | 164 | 4.8 | 12.9 | 0.00 | 0.00 | 0.00 | 64 | 1006.0 |
| 20260506175951 | 21 | 123 | 4.8 | 14.5 | 0.00 | 0.00 | 0.00 | 64 | 1006.1 |
| 20260506175423 | 21 | 200 | 4.8 | 14.5 | 0.00 | 0.00 | 0.00 | 61 | 1006.1 |
| 20260506174922 | 21 | 159 | 4.8 | 14.5 | 0.00 | 0.00 | 0.00 | 60 | 1006.1 |
| 20260506174353 | 22 | 182 | 6.4 | 19.3 | 0.00 | 0.00 | 0.00 | 59 | 1006.1 |
| 20260506174122 | 22 | 148 | 4.8 | 19.3 | 0.00 | 0.00 | 0.00 | 59 | 1006.0 |
| 20260506173323 | 22 | 225 | 3.2 | 12.9 | 0.00 | 0.00 | 0.00 | 61 | 1006.1 |
| 20260506172821 | 22 | 203 | 4.8 | 12.9 | 0.00 | 0.00 | 0.00 | 60 | 1005.9 |
| 20260506172317 | 22 | 228 | 4.8 | 12.9 | 0.00 | 0.00 | 0.00 | 60 | 1005.9 |
| 20260506172048 | 22 | 179 | 4.8 | 17.7 | 0.00 | 0.00 | 0.00 | 61 | 1006.0 |
| 20260506171247 | 22 | 163 | 3.2 | 17.7 | 0.00 | 0.00 | 0.00 | 61 | 1006.1 |
| 20260506170744 | 22 | 170 | 3.2 | 11.3 | 0.00 | 0.00 | 0.00 | 63 | 1006.2 |
| 20260506170241 | 21 | 236 | 4.8 | 12.9 | 0.00 | 0.00 | 0.00 | 62 | 1006.2 |
| 20260506165739 | 21 | 158 | 4.8 | 12.9 | 0.00 | 0.00 | 0.00 | 62 | 1006.3 |
| 20260506165213 | 21 | 146 | 4.8 | 19.3 | 0.00 | 0.00 | 0.00 | 63 | 1006.5 |
| 20260506164714 | 21 | 146 | 4.8 | 11.3 | 0.00 | 0.00 | 0.00 | 63 | 1006.6 |
| 20260506164710 | 21 | 195 | 4.8 | 19.3 | 0.00 | 0.00 | 0.00 | 64 | 1006.5 |
| 20260506163642 | 21 | 191 | 3.2 | 9.7 | 0.00 | 0.00 | 0.00 | 64 | 1006.7 |
| 20260506163143 | 21 | 207 | 3.2 | 9.7 | 0.00 | 0.00 | 0.00 | 65 | 1006.9 |
| 20260506162914 | 21 | 294 | 4.8 | 11.3 | 0.00 | 0.00 | 0.00 | 64 | 1006.9 |
| 20260506162142 | 21 | 213 | 3.2 | 11.3 | 0.00 | 0.00 | 0.00 | 64 | 1006.9 |
| 20260506161614 | 21 | 108 | 3.2 | 8.0 | 0.00 | 0.00 | 0.00 | 65 | 1006.9 |
| 20260506161049 | 21 | 167 | 3.2 | 11.3 | 0.00 | 0.00 | 0.00 | 65 | 1007.0 |
| 20260506160521 | 21 | 149 | 3.2 | 11.3 | 0.00 | 0.00 | 0.00 | 65 | 1007.2 |
| 20260506160250 | 21 | 216 | 3.2 | 11.3 | 0.00 | 0.00 | 0.00 | 66 | 1007.4 |
| 20260506155451 | 21 | 148 | 3.2 | 11.3 | 0.00 | 0.00 | 0.00 | 67 | 1007.5 |
| 20260506154949 | 21 | 163 | 3.2 | 9.7 | 0.00 | 0.00 | 0.00 | 66 | 1007.6 |
| 20260506154421 | 20 | 126 | 4.8 | 14.5 | 0.00 | 0.00 | 0.00 | 67 | 1007.7 |
| 20260506153922 | 20 | 142 | 4.8 | 14.5 | 0.00 | 0.00 | 0.00 | 67 | 1007.8 |
| 20260506153355 | 20 | 143 | 3.2 | 12.9 | 0.00 | 0.00 | 0.00 | 67 | 1007.8 |
| 20260506152830 | 20 | 145 | 4.8 | 12.9 | 0.00 | 0.00 | 0.00 | 67 | 1007.9 |
| 20260506152325 | 20 | 213 | 4.8 | 12.9 | 0.00 | 0.00 | 0.00 | 67 | 1007.9 |
| 20260506151828 | 21 | 145 | 4.8 | 12.9 | 0.00 | 0.00 | 0.00 | 66 | 1008.1 |
| 20260506151314 | 21 | 163 | 4.8 | 12.9 | 0.00 | 0.00 | 0.00 | 66 | 1008.2 |
| 20260506150818 | 21 | 180 | 4.8 | 12.9 | 0.00 | 0.00 | 0.00 | 67 | 1008.2 |
| 20260506150249 | 21 | 153 | 6.4 | 12.9 | 0.00 | 0.00 | 0.00 | 67 | 1008.0 |
| 20260506145748 | 21 | 143 | 6.4 | 14.5 | 0.00 | 0.00 | 0.00 | 67 | 1008.0 |
| 20260506145230 | 21 | 130 | 4.8 | 14.5 | 0.00 | 0.00 | 0.00 | 66 | 1008.3 |
| 20260506145000 | 21 | 347 | 3.2 | 11.3 | 0.00 | 0.00 | 0.00 | 66 | 1008.3 |
| 20260506144227 | 21 | 177 | 4.8 | 9.7 | 0.00 | 0.00 | 0.00 | 68 | 1008.1 |
| 20260506143725 | 21 | 186 | 3.2 | 9.7 | 0.00 | 0.00 | 0.00 | 67 | 1008.2 |
| 20260506143224 | 21 | 150 | 3.2 | 12.9 | 0.00 | 0.00 | 0.00 | 69 | 1008.1 |
| 20260506142655 | 20 | 188 | 3.2 | 12.9 | 0.00 | 0.00 | 0.00 | 69 | 1008.1 |
| 20260506142155 | 20 | 229 | 4.8 | 12.9 | 0.00 | 0.00 | 0.00 | 69 | 1008.0 |
| 20260506141636 | 20 | 86 | 3.2 | 12.9 | 0.00 | 0.00 | 0.00 | 69 | 1007.9 |
| 20260506141139 | 20 | 320 | 3.2 | 14.5 | 0.00 | 0.00 | 0.00 | 70 | 1007.8 |
| 20260506140628 | 20 | 145 | 4.8 | 17.7 | 0.00 | 0.00 | 0.00 | 71 | 1007.8 |
| 20260506140124 | 20 | 130 | 4.8 | 17.7 | 0.00 | 0.00 | 0.00 | 72 | 1007.9 |
| 20260506135627 | 19 | 145 | 4.8 | 11.3 | 0.00 | 0.00 | 0.00 | 72 | 1007.9 |
| 20260506135118 | 19 | 150 | 4.8 | 11.3 | 0.00 | 0.00 | 0.00 | 73 | 1008.0 |
| 20260506134622 | 18 | 174 | 4.8 | 11.3 | 0.00 | 0.00 | 0.00 | 73 | 1008.1 |
| 20260506134102 | 18 | 176 | 4.8 | 12.9 | 0.00 | 0.00 | 0.00 | 74 | 1008.1 |
| 20260506133604 | 18 | 162 | 4.8 | 12.9 | 0.00 | 0.00 | 0.00 | 74 | 1008.2 |
| 20260506133102 | 18 | 185 | 4.8 | 12.9 | 0.00 | 0.00 | 0.00 | 74 | 1008.3 |
| 20260506132538 | 18 | 154 | 4.8 | 12.9 | 0.00 | 0.00 | 0.00 | 74 | 1008.4 |
| 20260506132014 | 18 | 113 | 3.2 | 6.4 | 0.00 | 0.00 | 0.00 | 75 | 1008.5 |
| 20260506131515 | 18 | 141 | 3.2 | 8.0 | 0.00 | 0.00 | 0.00 | 75 | 1008.5 |
| 20260506130952 | 18 | 133 | 3.2 | 9.7 | 0.00 | 0.00 | 0.00 | 75 | 1008.5 |
| 20260506130446 | 17 | 86 | 3.2 | 9.7 | 0.00 | 0.00 | 0.00 | 75 | 1008.5 |
| 20260506125946 | 17 | 119 | 3.2 | 9.7 | 0.00 | 0.00 | 0.00 | 76 | 1008.5 |
| 20260506125419 | 17 | 137 | 4.8 | 9.7 | 0.00 | 0.00 | 0.00 | 75 | 1008.5 |
| 20260506124855 | 17 | 196 | 4.8 | 8.0 | 0.00 | 0.00 | 0.00 | 75 | 1008.6 |
| 20260506124328 | 17 | 171 | 4.8 | 11.3 | 0.00 | 0.00 | 0.00 | 76 | 1008.5 |
| 20260506123802 | 17 | 142 | 4.8 | 11.3 | 0.00 | 0.00 | 0.00 | 76 | 1008.4 |
| 20260506123235 | 17 | 198 | 4.8 | 11.3 | 0.00 | 0.00 | 0.00 | 76 | 1008.3 |
| 20260506122711 | 17 | 148 | 4.8 | 11.3 | 0.00 | 0.00 | 0.00 | 76 | 1008.2 |
| 20260506122141 | 17 | 146 | 3.2 | 8.0 | 0.00 | 0.00 | 0.00 | 76 | 1008.5 |
| 20260506121640 | 17 | 125 | 1.6 | 9.7 | 0.00 | 0.00 | 0.00 | 76 | 1008.6 |
| 20260506121345 | 17 | 196 | 3.2 | 9.7 | 0.00 | 0.00 | 0.00 | 77 | 1008.6 |
| 20260506120549 | 17 | 140 | 3.2 | 11.3 | 0.00 | 0.00 | 0.00 | 77 | 1008.6 |
| 20260506120023 | 16 | 90 | 4.8 | 14.5 | 0.00 | 0.00 | 0.00 | 77 | 1008.5 |
| 20260506115457 | 16 | 84 | 4.8 | 14.5 | 0.00 | 0.00 | 0.00 | 77 | 1008.7 |
| 20260506114951 | 16 | 317 | 3.2 | 9.7 | 0.00 | 0.00 | 0.00 | 77 | 1008.7 |
| 20260506114450 | 16 | 130 | 3.2 | 8.0 | 0.00 | 0.00 | 0.00 | 77 | 1008.7 |
| 20260506113924 | 16 | 161 | 3.2 | 6.4 | 0.00 | 0.00 | 0.00 | 77 | 1008.8 |
| 20260506113355 | 16 | 160 | 3.2 | 8.0 | 0.00 | 0.00 | 0.00 | 78 | 1008.7 |
| 20260506113126 | 16 | 176 | 3.2 | 6.4 | 0.00 | 0.00 | 0.00 | 78 | 1008.8 |
| 20260506112600 | 16 | 133 | 3.2 | 8.0 | 0.00 | 0.00 | 0.00 | 78 | 1008.9 |
| 20260506111824 | 16 | 121 | 3.2 | 9.7 | 0.00 | 0.00 | 0.00 | 78 | 1008.8 |
| 20260506111323 | 16 | 300 | 3.2 | 11.3 | 0.00 | 0.00 | 0.00 | 78 | 1008.9 |
| 20260506110754 | 16 | 341 | 3.2 | 11.3 | 0.00 | 0.00 | 0.00 | 78 | 1008.7 |
| 20260506110253 | 16 | 178 | 3.2 | 8.0 | 0.00 | 0.00 | 0.00 | 79 | 1008.7 |
| 20260506105727 | 15 | 192 | 3.2 | 6.4 | 0.00 | 0.00 | 0.00 | 79 | 1008.8 |
| 20260506105433 | 15 | 146 | 3.2 | 4.8 | 0.00 | 0.00 | 0.00 | 79 | 1008.8 |
| 20260506104632 | 15 | 203 | 1.6 | 4.8 | 0.00 | 0.00 | 0.00 | 79 | 1008.9 |
| 20260506104131 | 15 | 110 | 1.6 | 4.8 | 0.00 | 0.00 | 0.00 | 79 | 1009.0 |
| 20260506103602 | 15 | 110 | 3.2 | 4.8 | 0.00 | 0.00 | 0.00 | 79 | 1008.9 |
| 20260506103101 | 15 | 150 | 1.6 | 4.8 | 0.00 | 0.00 | 0.00 | 79 | 1008.8 |
| 20260506102548 | 15 | 150 | 1.6 | 4.8 | 0.00 | 0.00 | 0.00 | 79 | 1008.7 |
| 20260506102051 | 15 | 150 | 0.0 | 1.6 | 0.00 | 0.00 | 0.00 | 79 | 1008.7 |
| 20260506101524 | 15 | 150 | 1.6 | 6.4 | 0.00 | 0.00 | 0.00 | 79 | 1008.8 |
| 20260506101249 | 15 | 151 | 1.6 | 6.4 | 0.00 | 0.00 | 0.00 | 78 | 1009.0 |
| 20260506100517 | 15 | 198 | 1.6 | 4.8 | 0.00 | 0.00 | 0.00 | 78 | 1008.8 |
| 20260506095948 | 15 | 130 | 1.6 | 6.4 | 0.00 | 0.00 | 0.00 | 78 | 1008.8 |
| 20260506095447 | 15 | 131 | 1.6 | 6.4 | 0.00 | 0.00 | 0.00 | 78 | 1008.8 |
| 20260506095148 | 15 | 138 | 1.6 | 6.4 | 0.00 | 0.00 | 0.00 | 78 | 1008.8 |
| 20260506094416 | 15 | 138 | 1.6 | 6.4 | 0.00 | 0.00 | 0.00 | 78 | 1008.7 |
| 20260506093848 | 15 | 138 | 1.6 | 6.4 | 0.00 | 0.00 | 0.00 | 78 | 1008.7 |
| 20260506093346 | 15 | 107 | 3.2 | 6.4 | 0.00 | 0.00 | 0.00 | 78 | 1008.6 |
| 20260506092842 | 15 | 104 | 1.6 | 6.4 | 0.00 | 0.00 | 0.00 | 78 | 1008.8 |
| 20260506092340 | 15 | 132 | 1.6 | 6.4 | 0.00 | 0.00 | 0.00 | 78 | 1008.8 |
| 20260506092043 | 15 | 166 | 1.6 | 6.4 | 0.00 | 0.00 | 0.00 | 77 | 1008.9 |
| 20260506091542 | 15 | 166 | 1.6 | 6.4 | 0.00 | 0.00 | 0.00 | 77 | 1008.7 |
| 20260506090742 | 15 | 144 | 1.6 | 4.8 | 0.00 | 0.00 | 0.00 | 77 | 1008.8 |
| 20260506090241 | 16 | 140 | 1.6 | 4.8 | 0.00 | 0.00 | 0.00 | 77 | 1008.7 |
| 20260506085712 | 16 | 140 | 1.6 | 4.8 | 0.00 | 0.00 | 0.00 | 76 | 1008.8 |
| 20260506085441 | 16 | 140 | 1.6 | 3.2 | 0.00 | 0.00 | 0.00 | 76 | 1008.7 |
| 20260506084936 | 16 | 140 | 1.6 | 6.4 | 0.00 | 0.00 | 0.00 | 76 | 1008.8 |
| 20260506084136 | 16 | 140 | 3.2 | 6.4 | 0.00 | 0.00 | 0.00 | 76 | 1008.8 |
| 20260506083632 | 16 | 140 | 3.2 | 6.4 | 0.00 | 0.00 | 0.00 | 75 | 1008.8 |
| 20260506083133 | 16 | 168 | 3.2 | 6.4 | 0.00 | 0.00 | 0.00 | 75 | 1008.8 |
| 20260506082606 | 16 | 130 | 3.2 | 6.4 | 0.00 | 0.00 | 0.00 | 75 | 1008.8 |
| 20260506082103 | 16 | 162 | 3.2 | 6.4 | 0.00 | 0.00 | 0.00 | 75 | 1008.7 |
| 20260506081604 | 16 | 170 | 3.2 | 8.0 | 0.00 | 0.00 | 0.00 | 75 | 1008.6 |
| 20260506081044 | 16 | 142 | 3.2 | 8.0 | 0.00 | 0.00 | 0.00 | 75 | 1008.7 |
| 20260506080544 | 16 | 176 | 3.2 | 8.0 | 0.00 | 0.00 | 0.00 | 74 | 1008.7 |
| 20260506073351 | 16 | 165 | 3.2 | 9.7 | 0.00 | 0.00 | 0.00 | 73 | 1008.5 |
| 20260506072825 | 16 | 176 | 3.2 | 9.7 | 0.00 | 0.00 | 0.00 | 73 | 1008.5 |
| 20260506072533 | 16 | 246 | 3.2 | 6.4 | 0.00 | 0.00 | 0.00 | 73 | 1008.4 |
| 20260506071739 | 16 | 144 | 1.6 | 6.4 | 0.00 | 0.00 | 0.00 | 73 | 1008.4 |
| 20260506071219 | 16 | 323 | 1.6 | 4.8 | 0.00 | 0.00 | 0.00 | 73 | 1008.4 |
| 20260506070656 | 16 | 142 | 1.6 | 4.8 | 0.00 | 0.00 | 0.00 | 72 | 1008.4 |